Location: �terpigny
(49.8910°N, 2.9249°E)
Time: 05:35:50
(UTC+00:00)

Cosmos 1908 - Pass Details

Date: 06 June 2022
Orbit: 505 x 523 km, 82.5° (Epoch: 03 July)

Event Time Altitude Azimuth Distance (km) Brightness Sun altitude
Rises 22:16:52 0° 351° (N) 2,623 8.5 -14.7°
Reaches altitude 10° 22:19:00 10° 354° (N) 1,733 7.1 -14.8°
Maximum altitude 22:22:48 72° 79° (E) 538 3.2 -15.0°
Enters shadow 22:24:34 30° 158° (SSE) 938 3.9 -15.1°
